カタログに戻る

GOOD ANCESTOR KILAKILA

運用中通信SSO
NORAD 64528·PAYLOAD·🇸🇧 SB

打ち上げ Jun 23, 2025 から Vandenberg Space Force Base

Loading…

次のパス (今後24時間)

TLE

最新Source: Space-Track

元期: Sep 13, 2026, 21:44 UTC

1 64528U 25135A   26256.90618427  .00006201  00000-0  24949-3 0  9999
2 64528  97.4711  11.8420 0003836 219.7647 140.3310 15.25253974 68401

AllMySatでGOOD ANCESTOR KILAKILAをリアルタイム追跡

Download on the App Store